Location: Bruneau Dunes Observatory
(42.9024°N, 115.6902°W)
Time: 04:23:08
(UTC-06:00)

Daily predictions for brighter satellites

Satellite Brightness Start Highest point End
(mag) Time Altitude Azimuth Time Altitude Azimuth Time Altitude Azimuth
Cosmos 1943 3.5 00:14:01 65° N 00:14:01 65° N 00:19:01 10° NNE
Cosmos 2173 Rocket 4.5 00:17:02 49° ENE 00:17:02 49° ENE 00:22:06 10° NNE
Meteor 1-11 Rocket 4.3 00:14:02 10° N 00:18:26 49° NNE 00:18:26 49° NNE
Cosmos 2369 Rocket 2.8 00:14:21 10° NNW 00:19:04 50° WNW 00:19:04 50° WNW
CZ-2C R/B 3.2 00:21:15 10° NNE 00:25:21 54° NNE 00:25:21 54° NNE
Meteor 1-27 Rocket 4.4 00:29:14 49° NE 00:29:14 49° NE 00:33:31 10° NNE
CZ-4C R/B 3.8 00:31:06 14° W 00:35:03 32° NW 00:40:31 10° NNE
ATLAS 5 CENTAUR R/B 3.1 00:35:43 10° NW 00:40:19 47° W 00:40:19 47° W
Cosmos 1459 Rocket 4.2 00:46:24 64° N 00:46:24 64° N 00:51:29 10° N
BREEZE M DEB (TANK) 4.2 00:43:52 10° WNW 00:50:44 39° NNW 00:50:44 39° NNW
Terra 4.1 00:53:33 17° WNW 00:53:33 17° WNW 00:55:42 10° NW
H-2A R/B 4.1 00:55:39 27° N 00:55:39 27° N 00:57:51 10° N
USA 267 3.9 00:55:50 10° NE 01:02:08 52° NNW 01:06:18 22° W
ADEOS Rocket 3.8 01:11:29 10° NNE 01:16:45 47° ENE 01:16:45 47° ENE
Cosmos 1943 Rocket 4.2 01:19:34 10° NW 01:21:46 18° WNW 01:21:46 18° WNW
Mayak 1.2 01:27:42 10° N 01:29:09 21° N 01:29:09 21° N
USA 234 3.9 01:37:57 46° WNW 01:37:57 46° WNW 01:42:30 10° NW
SeaSat 1 4.0 01:41:58 32° NNW 01:41:58 32° NNW 01:44:35 10° NNW
Cosmos 2233 Rocket 4.5 01:41:11 54° NNE 01:41:11 54° NNE 01:45:52 10° N
Lacrosse 4 Rocket 4.0 01:47:25 10° N 01:49:53 18° NE 01:49:53 18° NE
Cosmos 1980 Rocket 4.5 02:00:26 10° N 02:04:16 18° NE 02:07:04 13° E
Cosmos 1697 Rocket 4.2 02:01:11 10° N 02:06:07 29° NE 02:06:40 29° ENE
COSMOS 2406 4.1 02:09:52 47° N 02:09:52 47° N 02:14:04 10° NNE
Cosmos 2082 Rocket 3.7 02:20:01 28° ENE 02:20:01 28° ENE 02:23:20 10° NE
Cosmos 1656 4.5 02:18:01 10° NNW 02:22:36 49° NNE 02:22:36 49° NNE
Cosmos 1607 4.3 02:39:38 62° ENE 02:39:38 62° ENE 02:45:07 10° NE
Cosmos 1833 Rocket 3.3 02:50:29 52° NE 02:50:29 52° NE 02:54:52 10° NNE
Cosmos 1867 4.5 02:47:43 10° NNW 02:51:25 43° NNW 02:51:25 43° NNW
Cosmos 2034 Rocket 4.1 03:03:27 71° NW 03:03:27 71° NW 03:09:09 10° N
ADEOS Rocket 4.4 02:57:37 10° N 03:03:07 27° WNW 03:03:42 27° WNW
Meteor 1-15 Rocket 4.5 02:57:55 10° N 03:03:32 69° NE 03:03:32 69° NE
SL-08 R/B 4.5 03:07:00 39° ENE 03:07:00 39° ENE 03:11:30 10° N
H-2A R/B 4.3 03:02:58 10° NNE 03:05:38 28° ENE 03:05:38 28° ENE
Cosmos 1092 Rocket 4.0 03:05:09 10° N 03:11:24 71° E 03:11:43 69° ESE
ATLAS 3B R/B 4.1 03:19:38 24° SE 03:21:08 26° ESE 03:26:43 10° ENE
Cosmos 2360 4.5 03:16:34 10° NNW 03:22:15 64° ENE 03:22:50 60° E
CZ-2D R/B 2.7 03:21:58 10° NNE 03:27:09 47° E 03:27:17 47° ESE
Lacrosse 4 Rocket 3.9 03:25:15 10° NW 03:26:11 16° NW 03:26:11 16° NW
Cosmos 1066 Rocket 4.4 03:34:26 59° ESE 03:34:40 59° E 03:39:58 10° NNE
Lacrosse 5 rocket 2.8 03:36:42 35° N 03:36:42 35° N 03:39:43 10° NE
Cosmos 371 Rocket 4.3 03:36:48 38° NW 03:36:48 38° NW 03:40:29 10° N
SL-16 R/B 2.5 03:39:09 60° SSE 03:40:25 84° ENE 03:46:43 10° NNW
Cosmos 1627 Rocket 4.5 03:34:46 10° N 03:41:10 83° E 03:42:19 62° SSE
IRS-1C 4.2 03:36:49 10° NNE 03:42:09 64° ESE 03:42:25 63° ESE
Cosmos 1025 Rocket 3.9 03:46:31 45° N 03:46:31 45° N 03:49:35 10° N
Cosmos 1980 Rocket 2.0 03:43:19 10° NNW 03:48:47 79° W 03:48:47 79° W
Cosmos 1697 Rocket 3.7 03:44:53 10° NW 03:48:22 33° WNW 03:48:22 33° WNW
Cosmos 1356 Rocket 4.1 03:52:09 50° NE 03:52:09 50° NE 03:55:20 10° NNE
CBERS-1 3.9 03:46:59 10° N 03:51:58 77° NW 03:51:58 77° NW
Cosmos 724 4.3 03:51:40 60° SSE 03:52:14 63° ESE 03:57:57 10° NE
Iridium 4 Rocket 3.7 03:54:18 50° NNW 03:54:18 50° NNW 03:57:52 10° N
Resurs 1-4 Rocket 1.9 03:50:30 10° NNE 03:55:47 86° ESE 03:56:08 78° S
Cosmos 1898 Rocket 3.4 03:52:44 10° NNW 03:57:58 86° ENE 03:58:32 72° SSE
Cosmos 1634 Rocket 3.9 04:00:32 60° WSW 04:01:19 66° W 04:07:34 10° N
PSLV R/B 4.5 04:02:53 53° NNW 04:02:53 53° NNW 04:06:02 10° NNW
Cosmos 2208 Rocket 3.9 04:02:05 70° W 04:02:16 71° WNW 04:07:31 10° NNE
Cosmos 2082 Rocket 3.0 04:01:51 37° WNW 04:02:20 37° WNW 04:07:35 10° N
SL-16 R/B 3.1 03:59:21 10° NNW 04:04:52 49° ENE 04:10:20 10° SE
Cosmos 1937 Rocket 3.6 03:59:44 10° NNW 04:04:56 71° ENE 04:06:54 38° SE
Cosmos 304 Rocket 3.9 04:05:17 60° NW 04:05:17 60° NW 04:09:53 10° NNE
Cosmos 858 Rocket 4.3 04:05:31 10° NNW 04:10:45 90° WSW 04:11:57 55° SSE
Helios 1A Rocket 3.6 04:07:37 10° NNE 04:11:40 48° E 04:12:07 45° ESE
Cosmos 2279 Rocket 3.9 04:10:10 50° S 04:11:59 89° W 04:18:18 10° N
IRS-P3 4.3 04:06:49 10° N 04:12:01 52° WNW 04:12:24 51° W
UNKNOWN OBJECT B 4.0 04:08:48 10° NNE 04:12:20 34° E 04:12:46 33° ESE
Cosmos 1570 Rocket 4.3 04:12:55 50° W 04:13:15 50° WNW 04:18:28 10° N
SAR-Lupe-2 4.5 04:17:45 42° NNW 04:17:45 42° NNW 04:20:12 10° NNW
Cosmos 990 Rocket 3.9 04:11:27 10° NNW 04:16:38 89° ENE 04:18:26 42° SSE
Cosmos 468 Rocket 4.0 04:16:32 62° WSW 04:17:12 69° WNW 04:22:32 10° NNE
Cosmos 2322 Rocket 2.7 04:13:19 10° NNW 04:18:55 59° ENE 04:24:26 10° SE
NPP 4.2 04:14:08 10° N 04:19:11 42° WNW 04:19:43 41° W
Cosmos 2026 Rocket 4.1 04:13:21 10° NNW 04:19:35 56° W 04:20:51 48° SW
MOZ.5/SAFIR/RUBIN 5/SL-8 3.6 04:19:57 69° SW 04:20:11 71° WSW 04:24:57 10° NNW
ARIANE 5 R/B 2.5 04:17:34 10° NNE 04:22:50 87° WNW 04:24:06 54° SSW
CZ-2D R/B 4.0 04:21:10 10° NNE 04:25:12 52° E 04:26:13 41° SSE
BREEZE-M R/B 2.7 04:27:31 69° ESE 04:27:31 69° ESE 04:32:06 10° ENE
Spot 4 Rocket 3.9 04:23:11 10° N 04:28:21 75° WNW 04:29:34 52° SW
USA 238 DEB 3.7 04:26:08 40° SSW 04:28:52 79° ESE 04:35:51 10° NE
USA 238 3.7 04:26:13 40° SSW 04:28:58 78° ESE 04:35:57 10° NE
Cosmos 1814 Rocket 3.9 04:27:50 53° SSW 04:29:06 89° NW 04:34:19 10° NNE
Cosmos 292 Rocket 4.3 04:29:24 35° SSE 04:31:07 53° ESE 04:35:48 10° NNE
Meteor 1-22 Rocket 4.2 04:25:31 10° NNW 04:31:26 70° W 04:33:38 38° SSW
Cosmos 1842 3.2 04:32:17 67° SSE 04:32:43 79° E 04:36:42 10° N
Cosmos 1833 Rocket 4.3 04:32:10 19° WNW 04:33:42 21° NW 04:37:58 10° N
H-2A R/B 4.0 04:38:52 10° NNW 04:42:14 23° WNW 04:42:14 23° WNW
Cosmos 2150 Rocket 4.0 04:37:48 10° NNW 04:43:17 74° WSW 04:47:55 14° S
Cosmos 1726 Rocket 3.9 04:40:41 10° NNW 04:44:38 42° W 04:44:38 42° W
Cosmos 1805 3.1 04:43:09 10° NNW 04:47:02 66° W 04:47:31 59° SW
Cosmos 44 3.5 04:42:29 10° NW 04:47:39 59° WSW 04:52:56 10° SSE
Cosmos 2298 Rocket 4.1 04:46:06 10° NNW 04:51:17 55° WSW 04:54:16 25° S
IRS-1D 4.3 04:48:32 10° N 04:53:15 36° WNW 04:54:42 30° W
Cosmos 841 Rocket 3.4 04:51:28 37° SSW 04:53:34 74° WNW 04:58:48 10° NNE
DNEPR-1 R/B 3.7 04:52:40 37° S 04:54:11 67° ESE 04:58:44 10° NE
Timation 2 Rocket 3.9 04:52:20 33° SW 04:55:02 66° WNW 05:01:00 10° NNE
Cosmos 2266 Rocket 3.9 04:49:20 10° N 04:55:27 86° W 05:01:38 10° S
Cosmos 1766 4.2 04:53:55 10° NNW 04:56:51 30° WNW 04:56:51 30° WNW
Cosmos 1953 2.6 04:56:52 10° N 05:00:56 68° E 05:04:58 10° SSE
Cosmos 540 Rocket 3.5 04:58:18 24° S 05:01:25 75° ESE 05:06:35 10° NNE
Cosmos 2228 3.5 04:58:16 10° NNW 05:02:11 36° W 05:02:35 35° WSW
Cosmos 1812 Rocket 4.1 04:59:08 10° N 05:03:34 60° E 05:07:57 10° SSE
ATLAS CENTAUR R/B 2.7 04:59:42 10° NNW 05:03:58 47° NE 05:08:27 10° SE
Meteor 2-11 Rocket 4.4 05:00:43 18° S 05:05:26 84° W 05:11:37 10° N
NOSS 3-2 (C) 3.8 05:02:02 20° SSW 05:06:04 61° ESE 05:12:28 10° NE
CZ-2D R/B 3.4 05:02:38 10° N 05:06:53 25° WNW 05:08:37 21° W
Cosmos 1602 Rocket 3.4 05:06:01 22° S 05:08:44 89° ESE 05:13:05 10° N
ATLAS 3B R/B 2.8 05:06:53 25° SW 05:11:20 69° NW 05:18:14 10° NNE
Cosmos 2058 Rocket 3.9 05:07:42 10° NNW 05:11:39 32° W 05:12:36 29° WSW
Cosmos 1733 3.1 05:10:31 10° NNW 05:14:23 74° W 05:17:46 13° S
ADEOS 3.8 05:09:22 10° N 05:14:26 52° WNW 05:17:26 24° SW
Lacrosse 5 rocket 3.9 05:13:44 10° NW 05:15:55 14° NNW 05:18:03 10° NNE
ADEOS II 2.0 05:11:20 10° NNE 05:16:37 81° WNW 05:20:53 16° SSW
Cosmos 1763 Rocket 4.4 05:15:43 23° WSW 05:18:05 34° WNW 05:22:55 10° N
Cosmos 1626 Rocket 3.6 05:17:47 23° SSW 05:20:17 60° W 05:24:35 10° N
NOSS 3-2 (A) 3.4 05:17:26 22° SW 05:21:28 80° NW 05:28:05 10° NE
SJ 16-02 1.2 05:17:50 10° NNW 05:22:16 78° WSW 05:26:40 10° SSE
SL-16 R/B 4.0 05:24:13 15° W 05:24:45 16° W 05:28:20 10° NW
Cosmos 44 Rocket 3.8 05:20:56 10° NW 05:25:43 40° WSW 05:30:32 10° S
Cosmos 1758 3.8 05:25:05 10° NNW 05:28:49 39° W 05:31:28 17° SSW
Aureole 2 Rocket 2.4 05:25:12 10° NNW 05:28:58 75° WSW 05:32:28 10° SSE
CENTAUR R/B 3.6 05:24:26 10° S 05:29:52 40° ESE 05:36:01 10° NE
Cosmos 2360 Rocket 2.1 05:24:48 10° NNW 05:30:28 86° WSW 05:36:05 10° SSE
USA 215 3.6 05:26:30 10° NE 05:32:59 62° SE 05:39:02 12° SW
Resurs 1-4 Rocket 4.0 05:32:15 10° NNW 05:34:53 14° WNW 05:37:13 11° W
ERBS 2.3 05:37:30 20° SW 05:39:42 81° SE 05:43:06 10° NE
Meteor 2-5 Rocket 4.2 05:37:48 10° S 05:43:14 64° E 05:48:47 10° NNE
UNKNOWN OBJECT B 4.5 05:43:58 10° NNW 05:46:32 17° WNW 05:48:14 14° W
Cosmos 1378 3.8 05:45:19 15° SW 05:48:06 38° WNW 05:51:39 10° N
SL-16 R/B 3.2 05:44:05 10° NW 05:48:38 25° WSW 05:53:09 10° SSW
Cosmos 2292 Rocket 3.9 05:45:26 10° N 05:48:51 48° ENE 05:51:46 10° SSE
Cosmos 2333 Rocket 3.9 05:46:12 10° N 05:51:29 38° ENE 05:56:44 10° SE
Cosmos 1470 3.5 05:48:04 10° NNW 05:51:42 34° W 05:55:18 10° SSW
Cosmos 1125 Rocket 3.7 05:47:41 10° NNW 05:52:49 50° WSW 05:57:54 10° S
Cosmos 2219 Rocket 3.4 05:50:45 10° NNW 05:56:09 46° ENE 06:01:30 10° SE
COSMOS 2428 3.2 05:51:08 10° NNW 05:56:49 67° ENE 06:02:27 10° SE
Cosmos-2242 3.9 05:53:06 10° N 05:57:18 52° ENE 06:01:26 10° SSE
Cosmos 2322 Rocket 3.4 05:58:27 10° NW 06:02:26 20° W 06:06:24 10° SW
Meteor 1-24 Rocket 4.2 05:58:09 10° S 06:03:20 60° E 06:08:37 10° NNE
Cosmos 1707 3.5 06:00:49 10° SW 06:04:22 34° WNW 06:07:58 10° N
USA 267 4.3 06:01:50 10° ESE 06:08:04 50° NNE 06:14:20 10° NW
IDEFIX/ARIANE 42P 4.3 06:04:01 10° NNE 06:08:47 34° E 06:13:31 10° SSE
Meteor 1-16 Rocket 4.2 06:03:51 10° NNW 06:09:25 63° W 06:14:47 10° S
Cosmos 1825 Rocket 3.7 06:06:21 10° SSW 06:10:34 55° W 06:14:50 10° N
CZ-4B R/B 3.0 06:06:39 10° N 06:10:47 58° WNW 06:14:39 10° SSW
USA 161 1.5 06:08:59 10° SSE 06:11:59 88° E 06:14:53 10° N
Cosmos 1238 Rocket 4.3 06:07:51 10° SSW 06:14:19 57° WNW 06:20:52 10° N
Cosmos 1553 Rocket 4.1 06:08:20 10° SSW 06:14:44 73° W 06:21:09 10° N
Okean O Rocket 1.6 06:12:33 10° NNE 06:16:57 88° ESE 06:21:17 10° SSW
